Time,TemperatureF,DewpointF,PressureIn,WindDirection,WindDirectionDegrees,WindSpeedMPH,WindSpeedGustMPH,Humidity,HourlyPrecipIn,Conditions,Clouds,dailyrainin,SoftwareType,DateUTC
2013-08-03 00:01:00,67.0,63.3,29.89,West,270,0.0,4.0,88,0.00,,,0.00,Weather View 32 v70,2013-08-03 04:01:00,
2013-08-03 00:02:00,67.0,63.3,29.89,West,270,0.0,4.0,88,0.00,,,0.00,Weather View 32 v70,2013-08-03 04:02:00,
2013-08-03 00:07:00,68.0,64.3,29.89,West,270,0.0,4.0,88,0.00,,,0.00,Weather View 32 v70,2013-08-03 04:07:00,
2013-08-03 00:12:00,67.0,63.6,29.89,West,270,0.0,4.0,89,0.00,,,0.00,Weather View 32 v70,2013-08-03 04:12:00,
2013-08-03 00:17:00,67.0,64.0,29.89,West,270,0.0,4.0,90,0.00,,,0.00,Weather View 32 v70,2013-08-03 04:17:00,
2013-08-03 00:22:00,67.0,64.3,29.89,West,270,0.0,4.0,91,0.00,,,0.00,Weather View 32 v70,2013-08-03 04:22:00,
2013-08-03 00:27:00,67.0,64.3,29.89,West,270,0.0,4.0,91,0.00,,,0.00,Weather View 32 v70,2013-08-03 04:27:00,
2013-08-03 00:32:00,67.0,64.6,29.89,West,270,0.0,4.0,92,0.00,,,0.00,Weather View 32 v70,2013-08-03 04:32:00,
2013-08-03 00:37:00,67.0,64.3,29.88,West,270,0.0,4.0,91,0.00,,,0.00,Weather View 32 v70,2013-08-03 04:37:00,
2013-08-03 00:42:00,66.0,63.6,29.88,West,270,0.0,4.0,92,0.00,,,0.00,Weather View 32 v70,2013-08-03 04:42:00,
2013-08-03 00:47:00,67.0,64.9,29.88,West,270,0.0,2.0,93,0.00,,,0.00,Weather View 32 v70,2013-08-03 04:47:00,
2013-08-03 00:52:00,67.0,64.6,29.88,WSW,247,0.0,3.0,92,0.00,,,0.00,Weather View 32 v70,2013-08-03 04:52:00,
2013-08-03 00:57:00,67.0,64.3,29.87,WNW,292,0.0,3.0,91,0.00,,,0.00,Weather View 32 v70,2013-08-03 04:57:00,
2013-08-03 01:02:00,67.0,64.3,29.87,WNW,292,0.0,3.0,91,0.00,,,0.00,Weather View 32 v70,2013-08-03 05:02:00,
2013-08-03 01:07:00,67.0,63.6,29.87,WNW,292,0.0,3.0,89,0.00,,,0.00,Weather View 32 v70,2013-08-03 05:07:00,
2013-08-03 01:12:00,67.0,63.3,29.87,WNW,292,0.0,3.0,88,0.00,,,0.00,Weather View 32 v70,2013-08-03 05:12:00,
2013-08-03 01:17:00,67.0,63.3,29.87,WNW,292,0.0,3.0,88,0.00,,,0.00,Weather View 32 v70,2013-08-03 05:17:00,
2013-08-03 01:22:00,67.0,63.3,29.87,WNW,292,0.0,3.0,88,0.00,,,0.00,Weather View 32 v70,2013-08-03 05:22:00,
2013-08-03 01:27:00,67.0,63.0,29.87,WNW,292,0.0,3.0,87,0.00,,,0.00,Weather View 32 v70,2013-08-03 05:27:00,
2013-08-03 01:32:00,67.0,63.3,29.87,WNW,292,0.0,3.0,88,0.00,,,0.00,Weather View 32 v70,2013-08-03 05:32:00,
2013-08-03 01:37:00,67.0,63.0,29.86,WNW,292,0.0,3.0,87,0.00,,,0.00,Weather View 32 v70,2013-08-03 05:37:00,
2013-08-03 01:42:00,67.0,62.7,29.86,WNW,292,0.0,3.0,86,0.00,,,0.00,Weather View 32 v70,2013-08-03 05:42:00,
2013-08-03 01:47:00,67.0,62.7,29.85,WNW,292,0.0,3.0,86,0.00,,,0.00,Weather View 32 v70,2013-08-03 05:47:00,
2013-08-03 01:52:00,67.0,62.7,29.85,WNW,292,0.0,2.0,86,0.00,,,0.00,Weather View 32 v70,2013-08-03 05:52:00,
2013-08-03 01:57:00,67.0,63.0,29.85,WNW,292,0.0,2.0,87,0.00,,,0.00,Weather View 32 v70,2013-08-03 05:57:00,
2013-08-03 02:02:00,67.0,62.7,29.85,WNW,292,0.0,3.0,86,0.00,,,0.00,Weather View 32 v70,2013-08-03 06:02:00,
2013-08-03 02:07:00,67.0,63.0,29.86,WNW,292,0.0,3.0,87,0.00,,,0.00,Weather View 32 v70,2013-08-03 06:07:00,
2013-08-03 02:12:00,67.0,63.3,29.86,WNW,292,0.0,3.0,88,0.00,,,0.00,Weather View 32 v70,2013-08-03 06:12:00,
2013-08-03 02:17:00,67.0,63.3,29.85,WNW,292,0.0,3.0,88,0.00,,,0.00,Weather View 32 v70,2013-08-03 06:17:00,
2013-08-03 02:22:00,67.0,63.3,29.85,West,270,3.0,4.0,88,0.00,,,0.00,Weather View 32 v70,2013-08-03 06:22:00,
2013-08-03 02:27:00,67.0,63.0,29.85,WNW,292,4.0,4.0,87,0.00,,,0.00,Weather View 32 v70,2013-08-03 06:27:00,
2013-08-03 02:32:00,67.0,62.7,29.85,West,270,2.0,7.0,86,0.00,,,0.00,Weather View 32 v70,2013-08-03 06:32:00,
2013-08-03 02:37:00,68.0,63.3,29.85,West,270,5.0,7.0,85,0.00,,,0.00,Weather View 32 v70,2013-08-03 06:37:00,
2013-08-03 02:42:00,68.0,63.3,29.85,West,270,1.0,7.0,85,0.00,,,0.00,Weather View 32 v70,2013-08-03 06:42:00,
2013-08-03 02:47:00,68.0,62.6,29.84,West,270,3.0,7.0,83,0.00,,,0.00,Weather View 32 v70,2013-08-03 06:47:00,
2013-08-03 02:52:00,68.0,62.6,29.84,West,270,4.0,7.0,83,0.00,,,0.00,Weather View 32 v70,2013-08-03 06:52:00,
2013-08-03 02:57:00,68.0,62.3,29.84,West,270,3.0,7.0,82,0.00,,,0.00,Weather View 32 v70,2013-08-03 06:57:00,
2013-08-03 03:02:00,68.0,61.9,29.84,West,270,3.0,7.0,81,0.00,,,0.00,Weather View 32 v70,2013-08-03 07:02:00,
2013-08-03 03:07:00,68.0,61.6,29.84,WNW,292,6.0,9.0,80,0.00,,,0.00,Weather View 32 v70,2013-08-03 07:07:00,
2013-08-03 03:12:00,68.0,61.6,29.84,West,270,7.0,9.0,80,0.00,,,0.00,Weather View 32 v70,2013-08-03 07:12:00,
2013-08-03 03:17:00,68.0,60.9,29.83,West,270,2.0,10.0,78,0.00,,,0.00,Weather View 32 v70,2013-08-03 07:17:00,
2013-08-03 03:22:00,68.0,61.2,29.83,WNW,292,2.0,10.0,79,0.00,,,0.00,Weather View 32 v70,2013-08-03 07:22:00,
2013-08-03 03:27:00,68.0,60.9,29.83,NW,315,5.0,10.0,78,0.00,,,0.00,Weather View 32 v70,2013-08-03 07:27:00,
2013-08-03 03:32:00,68.0,60.5,29.83,WNW,292,5.0,10.0,77,0.00,,,0.00,Weather View 32 v70,2013-08-03 07:32:00,
2013-08-03 03:37:00,69.0,61.1,29.83,West,270,1.0,10.0,76,0.00,,,0.00,Weather View 32 v70,2013-08-03 07:37:00,
2013-08-03 03:43:00,69.0,60.7,29.83,WNW,292,3.0,10.0,75,0.00,,,0.00,Weather View 32 v70,2013-08-03 07:43:00,
2013-08-03 03:48:00,69.0,61.1,29.82,NW,315,2.0,10.0,76,0.00,,,0.00,Weather View 32 v70,2013-08-03 07:48:00,
2013-08-03 03:53:00,69.0,60.7,29.82,WNW,292,2.0,10.0,75,0.00,,,0.00,Weather View 32 v70,2013-08-03 07:53:00,
2013-08-03 03:58:00,69.0,60.7,29.83,West,270,3.0,10.0,75,0.00,,,0.00,Weather View 32 v70,2013-08-03 07:58:00,
2013-08-03 04:03:00,68.0,60.1,29.83,West,270,0.0,10.0,76,0.00,,,0.00,Weather View 32 v70,2013-08-03 08:03:00,
2013-08-03 04:08:00,68.0,60.1,29.83,WNW,292,3.0,10.0,76,0.00,,,0.00,Weather View 32 v70,2013-08-03 08:08:00,
2013-08-03 04:12:00,68.0,60.1,29.83,West,270,2.0,10.0,76,0.00,,,0.00,Weather View 32 v70,2013-08-03 08:12:00,
2013-08-03 04:18:00,68.0,60.1,29.83,WNW,292,5.0,10.0,76,0.00,,,0.00,Weather View 32 v70,2013-08-03 08:18:00,
2013-08-03 04:22:00,68.0,60.1,29.83,NW,315,2.0,10.0,76,0.00,,,0.00,Weather View 32 v70,2013-08-03 08:22:00,
2013-08-03 04:28:00,68.0,60.1,29.84,West,270,2.0,10.0,76,0.00,,,0.00,Weather View 32 v70,2013-08-03 08:28:00,
2013-08-03 04:32:00,68.0,60.1,29.84,West,270,0.0,7.0,76,0.00,,,0.00,Weather View 32 v70,2013-08-03 08:32:00,
2013-08-03 04:38:00,68.0,60.1,29.85,West,270,0.0,7.0,76,0.00,,,0.00,Weather View 32 v70,2013-08-03 08:38:00,
2013-08-03 04:43:00,68.0,60.5,29.85,WSW,247,0.0,7.0,77,0.00,,,0.00,Weather View 32 v70,2013-08-03 08:43:00,
2013-08-03 04:48:00,68.0,60.9,29.84,SSW,202,0.0,7.0,78,0.00,,,0.00,Weather View 32 v70,2013-08-03 08:48:00,
2013-08-03 04:53:00,68.0,60.9,29.84,West,270,2.0,7.0,78,0.00,,,0.00,Weather View 32 v70,2013-08-03 08:53:00,
2013-08-03 04:58:00,68.0,60.9,29.84,WSW,247,1.0,7.0,78,0.00,,,0.00,Weather View 32 v70,2013-08-03 08:58:00,
2013-08-03 05:03:00,68.0,61.2,29.84,WSW,247,3.0,7.0,79,0.00,,,0.00,Weather View 32 v70,2013-08-03 09:03:00,
2013-08-03 05:08:00,68.0,61.9,29.85,SW,225,2.0,7.0,81,0.00,,,0.00,Weather View 32 v70,2013-08-03 09:08:00,
2013-08-03 05:13:00,68.0,61.2,29.85,SW,225,1.0,7.0,79,0.00,,,0.00,Weather View 32 v70,2013-08-03 09:13:00,
2013-08-03 05:18:00,68.0,61.6,29.85,SW,225,2.0,7.0,80,0.00,,,0.00,Weather View 32 v70,2013-08-03 09:18:00,
2013-08-03 05:23:00,68.0,61.6,29.85,SW,225,1.0,7.0,80,0.00,,,0.00,Weather View 32 v70,2013-08-03 09:23:00,
2013-08-03 05:28:00,67.0,61.0,29.85,SW,225,4.0,5.0,81,0.00,,,0.00,Weather View 32 v70,2013-08-03 09:28:00,
2013-08-03 05:33:00,67.0,61.6,29.85,SSW,202,2.0,5.0,83,0.00,,,0.00,Weather View 32 v70,2013-08-03 09:33:00,
2013-08-03 05:38:00,67.0,61.0,29.85,SW,225,0.0,5.0,81,0.00,,,0.00,Weather View 32 v70,2013-08-03 09:38:00,
2013-08-03 05:43:00,67.0,61.3,29.85,SW,225,2.0,5.0,82,0.00,,,0.00,Weather View 32 v70,2013-08-03 09:43:00,
2013-08-03 05:48:00,67.0,61.6,29.85,WNW,292,0.0,5.0,83,0.00,,,0.00,Weather View 32 v70,2013-08-03 09:48:00,
2013-08-03 05:53:00,67.0,61.6,29.85,SW,225,1.0,5.0,83,0.00,,,0.00,Weather View 32 v70,2013-08-03 09:53:00,
2013-08-03 05:58:00,67.0,61.3,29.85,SW,225,0.0,5.0,82,0.00,,,0.00,Weather View 32 v70,2013-08-03 09:58:00,
2013-08-03 06:03:00,67.0,61.6,29.85,SW,225,2.0,5.0,83,0.00,,,0.00,Weather View 32 v70,2013-08-03 10:03:00,
2013-08-03 06:08:00,67.0,61.6,29.85,SW,225,2.0,5.0,83,0.00,,,0.00,Weather View 32 v70,2013-08-03 10:08:00,
2013-08-03 06:13:00,67.0,61.6,29.85,SW,225,3.0,5.0,83,0.00,,,0.00,Weather View 32 v70,2013-08-03 10:13:00,
2013-08-03 06:18:00,67.0,61.6,29.85,SW,225,1.0,5.0,83,0.00,,,0.00,Weather View 32 v70,2013-08-03 10:18:00,
2013-08-03 06:23:00,67.0,61.6,29.85,SW,225,3.0,5.0,83,0.00,,,0.00,Weather View 32 v70,2013-08-03 10:23:00,
2013-08-03 06:28:00,67.0,61.6,29.86,SW,225,2.0,5.0,83,0.00,,,0.00,Weather View 32 v70,2013-08-03 10:28:00,
2013-08-03 06:33:00,67.0,61.6,29.86,SW,225,3.0,5.0,83,0.00,,,0.00,Weather View 32 v70,2013-08-03 10:33:00,
2013-08-03 06:38:00,67.0,61.6,29.86,SW,225,4.0,5.0,83,0.00,,,0.00,Weather View 32 v70,2013-08-03 10:38:00,
2013-08-03 06:43:00,66.0,60.7,29.86,SW,225,3.0,5.0,83,0.00,,,0.00,Weather View 32 v70,2013-08-03 10:43:00,
2013-08-03 06:48:00,67.0,61.6,29.86,SW,225,4.0,5.0,83,0.00,,,0.00,Weather View 32 v70,2013-08-03 10:48:00,
2013-08-03 06:53:00,66.0,60.7,29.86,SW,225,3.0,5.0,83,0.00,,,0.00,Weather View 32 v70,2013-08-03 10:53:00,
2013-08-03 06:58:00,67.0,62.0,29.86,SW,225,5.0,6.0,84,0.00,,,0.00,Weather View 32 v70,2013-08-03 10:58:00,
2013-08-03 07:03:00,66.0,61.0,29.86,SW,225,1.0,6.0,84,0.00,,,0.00,Weather View 32 v70,2013-08-03 11:03:00,
2013-08-03 07:08:00,67.0,61.6,29.86,WSW,247,2.0,6.0,83,0.00,,,0.00,Weather View 32 v70,2013-08-03 11:08:00,
2013-08-03 07:13:00,67.0,61.6,29.86,SW,225,3.0,6.0,83,0.00,,,0.00,Weather View 32 v70,2013-08-03 11:13:00,
2013-08-03 07:20:00,67.0,62.0,29.85,SW,225,3.0,6.0,84,0.00,,,0.00,Weather View 32 v70,2013-08-03 11:20:00,
2013-08-03 07:25:00,67.0,62.0,29.85,SW,225,3.0,6.0,84,0.00,,,0.00,Weather View 32 v70,2013-08-03 11:25:00,
2013-08-03 07:30:00,67.0,62.0,29.86,West,270,2.0,6.0,84,0.00,,,0.00,Weather View 32 v70,2013-08-03 11:30:00,
2013-08-03 07:35:00,67.0,62.0,29.86,SW,225,4.0,6.0,84,0.00,,,0.00,Weather View 32 v70,2013-08-03 11:35:00,
2013-08-03 07:40:00,67.0,62.0,29.86,West,270,4.0,6.0,84,0.00,,,0.00,Weather View 32 v70,2013-08-03 11:40:00,
2013-08-03 07:45:00,67.0,61.6,29.86,NNW,337,4.0,7.0,83,0.00,,,0.00,Weather View 32 v70,2013-08-03 11:45:00,
2013-08-03 07:50:00,67.0,62.0,29.86,SSW,202,1.0,9.0,84,0.00,,,0.00,Weather View 32 v70,2013-08-03 11:50:00,
2013-08-03 07:55:00,67.0,62.0,29.86,SW,225,2.0,9.0,84,0.00,,,0.00,Weather View 32 v70,2013-08-03 11:55:00,
2013-08-03 08:00:00,68.0,63.3,29.85,South,180,1.0,9.0,85,0.00,,,0.00,Weather View 32 v70,2013-08-03 12:00:00,
2013-08-03 08:05:00,68.0,63.3,29.85,SSW,202,4.0,9.0,85,0.00,,,0.00,Weather View 32 v70,2013-08-03 12:05:00,
2013-08-03 08:10:00,68.0,63.3,29.86,SSW,202,2.0,9.0,85,0.00,,,0.00,Weather View 32 v70,2013-08-03 12:10:00,
2013-08-03 08:15:00,68.0,63.3,29.86,SW,225,2.0,9.0,85,0.00,,,0.00,Weather View 32 v70,2013-08-03 12:15:00,
2013-08-03 08:20:00,68.0,63.6,29.87,SW,225,2.0,9.0,86,0.00,,,0.00,Weather View 32 v70,2013-08-03 12:20:00,
2013-08-03 08:25:00,68.0,63.3,29.87,SW,225,0.0,9.0,85,0.00,,,0.00,Weather View 32 v70,2013-08-03 12:25:00,
2013-08-03 08:30:00,68.0,63.6,29.86,SW,225,0.0,9.0,86,0.00,,,0.00,Weather View 32 v70,2013-08-03 12:30:00,
2013-08-03 08:35:00,68.0,63.6,29.86,WSW,247,2.0,9.0,86,0.00,,,0.00,Weather View 32 v70,2013-08-03 12:35:00,
2013-08-03 08:40:00,68.0,63.6,29.87,SW,225,1.0,9.0,86,0.00,,,0.00,Weather View 32 v70,2013-08-03 12:40:00,
2013-08-03 08:45:00,68.0,64.3,29.87,WNW,292,0.0,9.0,88,0.00,,,0.00,Weather View 32 v70,2013-08-03 12:45:00,
2013-08-03 08:50:00,68.0,64.3,29.87,WNW,292,0.0,6.0,88,0.00,,,0.00,Weather View 32 v70,2013-08-03 12:50:00,
2013-08-03 08:55:00,68.0,64.9,29.87,SW,225,3.0,6.0,90,0.00,,,0.00,Weather View 32 v70,2013-08-03 12:55:00,
2013-08-03 09:00:00,68.0,64.9,29.86,SW,225,3.0,6.0,90,0.00,,,0.00,Weather View 32 v70,2013-08-03 13:00:00,
2013-08-03 09:05:00,68.0,64.9,29.86,SW,225,1.0,6.0,90,0.00,,,0.00,Weather View 32 v70,2013-08-03 13:05:00,
2013-08-03 09:10:00,68.0,64.9,29.86,West,270,2.0,6.0,90,0.00,,,0.00,Weather View 32 v70,2013-08-03 13:10:00,
2013-08-03 09:15:00,68.0,64.6,29.86,SSW,202,1.0,9.0,89,0.00,,,0.00,Weather View 32 v70,2013-08-03 13:15:00,
2013-08-03 09:20:00,68.0,64.3,29.85,NW,315,0.0,9.0,88,0.00,,,0.00,Weather View 32 v70,2013-08-03 13:20:00,
2013-08-03 09:25:00,68.0,64.3,29.85,WSW,247,2.0,9.0,88,0.00,,,0.00,Weather View 32 v70,2013-08-03 13:25:00,
2013-08-03 09:30:00,68.0,64.3,29.85,WSW,247,0.0,9.0,88,0.00,,,0.00,Weather View 32 v70,2013-08-03 13:30:00,
2013-08-03 09:35:00,68.0,64.3,29.85,WSW,247,2.0,9.0,88,0.00,,,0.00,Weather View 32 v70,2013-08-03 13:35:00,
2013-08-03 09:40:00,69.0,65.3,29.84,NW,315,1.0,9.0,88,0.00,,,0.00,Weather View 32 v70,2013-08-03 13:40:00,
2013-08-03 09:45:00,69.0,65.6,29.84,SW,225,3.0,9.0,89,0.00,,,0.00,Weather View 32 v70,2013-08-03 13:45:00,
2013-08-03 09:50:00,68.0,64.3,29.85,West,270,0.0,9.0,88,0.00,,,0.00,Weather View 32 v70,2013-08-03 13:50:00,
2013-08-03 09:55:00,68.0,64.6,29.85,West,270,4.0,9.0,89,0.00,,,0.00,Weather View 32 v70,2013-08-03 13:55:00,
2013-08-03 10:00:00,68.0,64.6,29.85,West,270,4.0,9.0,89,0.00,,,0.00,Weather View 32 v70,2013-08-03 14:00:00,
2013-08-03 10:05:00,68.0,65.3,29.85,West,270,2.0,9.0,91,0.00,,,0.00,Weather View 32 v70,2013-08-03 14:05:00,
2013-08-03 10:10:00,68.0,64.9,29.85,SW,225,1.0,9.0,90,0.00,,,0.00,Weather View 32 v70,2013-08-03 14:10:00,
2013-08-03 10:15:00,68.0,65.3,29.85,NNW,337,3.0,8.0,91,0.00,,,0.00,Weather View 32 v70,2013-08-03 14:15:00,
2013-08-03 10:20:00,68.0,65.9,29.86,SW,225,1.0,8.0,93,0.00,,,0.00,Weather View 32 v70,2013-08-03 14:20:00,
2013-08-03 10:25:00,68.0,65.9,29.86,NW,315,5.0,8.0,93,0.00,,,0.00,Weather View 32 v70,2013-08-03 14:25:00,
2013-08-03 10:30:00,68.0,65.9,29.86,West,270,0.0,10.0,93,0.00,,,0.00,Weather View 32 v70,2013-08-03 14:30:00,
2013-08-03 10:35:00,68.0,66.2,29.86,WNW,292,6.0,10.0,94,0.00,,,0.00,Weather View 32 v70,2013-08-03 14:35:00,
2013-08-03 10:40:00,68.0,66.5,29.86,West,270,0.0,10.0,95,0.00,,,0.00,Weather View 32 v70,2013-08-03 14:40:00,
2013-08-03 10:45:00,68.0,66.5,29.86,SW,225,2.0,10.0,95,0.00,,,0.00,Weather View 32 v70,2013-08-03 14:45:00,
2013-08-03 10:50:00,68.0,66.5,29.86,South,180,3.0,10.0,95,0.00,,,0.00,Weather View 32 v70,2013-08-03 14:50:00,
2013-08-03 10:55:00,68.0,66.8,29.86,South,180,0.0,10.0,96,0.00,,,0.00,Weather View 32 v70,2013-08-03 14:55:00,
2013-08-03 11:00:00,68.0,67.1,29.86,SSE,157,0.0,10.0,97,0.00,,,0.00,Weather View 32 v70,2013-08-03 15:00:00,
2013-08-03 11:05:00,68.0,66.5,29.86,SSE,157,4.0,10.0,95,0.00,,,0.00,Weather View 32 v70,2013-08-03 15:05:00,
2013-08-03 11:10:00,68.0,66.8,29.86,SSW,202,1.0,10.0,96,0.00,,,0.00,Weather View 32 v70,2013-08-03 15:10:00,
2013-08-03 11:15:00,68.0,66.5,29.86,ESE,112,0.0,10.0,95,0.00,,,0.00,Weather View 32 v70,2013-08-03 15:15:00,
2013-08-03 11:20:00,69.0,67.8,29.85,ESE,112,0.0,10.0,96,0.00,,,0.00,Weather View 32 v70,2013-08-03 15:20:00,
2013-08-03 11:25:00,69.0,67.8,29.85,ESE,112,0.0,10.0,96,0.00,,,0.00,Weather View 32 v70,2013-08-03 15:25:00,
2013-08-03 11:30:00,69.0,67.5,29.86,North,360,0.0,8.0,95,0.00,,,0.00,Weather View 32 v70,2013-08-03 15:30:00,
2013-08-03 11:35:00,69.0,66.9,29.86,WSW,247,1.0,8.0,93,0.00,,,0.00,Weather View 32 v70,2013-08-03 15:35:00,
2013-08-03 11:40:00,70.0,68.2,29.85,NW,315,0.0,6.0,94,0.00,,,0.00,Weather View 32 v70,2013-08-03 15:40:00,
2013-08-03 11:45:00,70.0,68.2,29.85,SSW,202,0.0,7.0,94,0.00,,,0.00,Weather View 32 v70,2013-08-03 15:45:00,
2013-08-03 11:50:00,70.0,65.9,29.85,SW,225,3.0,10.0,87,0.00,,,0.00,Weather View 32 v70,2013-08-03 15:50:00,
2013-08-03 11:55:00,70.0,67.6,29.85,West,270,2.0,10.0,92,0.00,,,0.00,Weather View 32 v70,2013-08-03 15:55:00,
2013-08-03 12:00:00,71.0,68.2,29.84,WNW,292,4.0,10.0,91,0.00,,,0.00,Weather View 32 v70,2013-08-03 16:00:00,
2013-08-03 12:05:00,71.0,67.6,29.84,North,360,2.0,10.0,89,0.00,,,0.00,Weather View 32 v70,2013-08-03 16:05:00,
2013-08-03 12:10:00,71.0,67.6,29.85,WSW,247,0.0,10.0,89,0.00,,,0.00,Weather View 32 v70,2013-08-03 16:10:00,
2013-08-03 12:15:00,71.0,66.2,29.85,WNW,292,1.0,10.0,85,0.00,,,0.00,Weather View 32 v70,2013-08-03 16:15:00,
2013-08-03 12:20:00,72.0,67.6,29.84,SSW,202,0.0,10.0,86,0.00,,,0.00,Weather View 32 v70,2013-08-03 16:20:00,
2013-08-03 12:25:00,72.0,67.6,29.84,SSW,202,2.0,10.0,86,0.00,,,0.00,Weather View 32 v70,2013-08-03 16:25:00,
2013-08-03 12:30:00,72.0,67.6,29.84,WSW,247,1.0,10.0,86,0.00,,,0.00,Weather View 32 v70,2013-08-03 16:30:00,
2013-08-03 12:35:00,72.0,66.2,29.84,NW,315,4.0,10.0,82,0.00,,,0.00,Weather View 32 v70,2013-08-03 16:35:00,
2013-08-03 12:40:00,73.0,68.5,29.83,SW,225,2.0,10.0,86,0.00,,,0.00,Weather View 32 v70,2013-08-03 16:40:00,
2013-08-03 12:45:00,73.0,67.2,29.83,SW,225,1.0,10.0,82,0.00,,,0.00,Weather View 32 v70,2013-08-03 16:45:00,
2013-08-03 12:50:00,73.0,67.2,29.83,West,270,3.0,8.0,82,0.00,,,0.00,Weather View 32 v70,2013-08-03 16:50:00,
2013-08-03 12:55:00,74.0,67.4,29.83,North,360,0.0,6.0,80,0.00,,,0.00,Weather View 32 v70,2013-08-03 16:55:00,
2013-08-03 13:01:00,74.0,65.9,29.83,NNW,337,5.0,6.0,76,0.00,,,0.00,Weather View 32 v70,2013-08-03 17:01:00,
2013-08-03 13:06:00,74.0,67.4,29.83,West,270,0.0,7.0,80,0.00,,,0.00,Weather View 32 v70,2013-08-03 17:06:00,
2013-08-03 13:11:00,73.0,65.0,29.83,NW,315,1.0,7.0,76,0.00,,,0.00,Weather View 32 v70,2013-08-03 17:11:00,
2013-08-03 13:16:00,74.0,67.8,29.83,SSW,202,2.0,7.0,81,0.00,,,0.00,Weather View 32 v70,2013-08-03 17:16:00,
2013-08-03 13:21:00,74.0,67.4,29.83,SSW,202,0.0,7.0,80,0.00,,,0.00,Weather View 32 v70,2013-08-03 17:21:00,
2013-08-03 13:26:00,74.0,68.1,29.83,SSW,202,1.0,7.0,82,0.00,,,0.00,Weather View 32 v70,2013-08-03 17:26:00,
2013-08-03 13:30:00,74.0,67.0,29.82,SSW,202,0.0,7.0,79,0.00,,,0.00,Weather View 32 v70,2013-08-03 17:30:00,
2013-08-03 13:36:00,74.0,67.4,29.82,SSW,202,2.0,7.0,80,0.00,,,0.00,Weather View 32 v70,2013-08-03 17:36:00,
2013-08-03 13:41:00,74.0,67.4,29.82,WSW,247,1.0,7.0,80,0.00,,,0.00,Weather View 32 v70,2013-08-03 17:41:00,
2013-08-03 13:46:00,74.0,65.5,29.82,South,180,1.0,7.0,75,0.00,,,0.00,Weather View 32 v70,2013-08-03 17:46:00,
2013-08-03 13:51:00,74.0,67.4,29.82,South,180,0.0,7.0,80,0.00,,,0.00,Weather View 32 v70,2013-08-03 17:51:00,
2013-08-03 13:56:00,74.0,66.7,29.82,SSW,202,1.0,7.0,78,0.00,,,0.00,Weather View 32 v70,2013-08-03 17:56:00,
2013-08-03 14:00:00,75.0,69.1,29.82,SSW,202,0.0,7.0,82,0.00,,,0.00,Weather View 32 v70,2013-08-03 18:00:00,
2013-08-03 14:06:00,75.0,66.5,29.82,SSW,202,3.0,7.0,75,0.00,,,0.00,Weather View 32 v70,2013-08-03 18:06:00,
2013-08-03 14:11:00,76.0,69.0,29.81,SW,225,1.0,7.0,79,0.00,,,0.00,Weather View 32 v70,2013-08-03 18:11:00,
2013-08-03 14:15:00,77.0,67.6,29.81,SW,225,2.0,7.0,73,0.00,,,0.00,Weather View 32 v70,2013-08-03 18:15:00,
2013-08-03 14:25:00,78.0,67.0,29.80,WNW,292,2.0,7.0,69,0.00,,,0.00,Weather View 32 v70,2013-08-03 18:25:00,
2013-08-03 14:29:00,78.0,64.3,29.79,West,270,2.0,7.0,63,0.00,,,0.00,Weather View 32 v70,2013-08-03 18:29:00,
2013-08-03 14:35:00,79.0,65.3,29.79,NW,315,2.0,7.0,63,0.00,,,0.00,Weather View 32 v70,2013-08-03 18:35:00,
2013-08-03 14:39:00,79.0,65.3,29.78,SW,225,0.0,7.0,63,0.00,,,0.00,Weather View 32 v70,2013-08-03 18:39:00,
2013-08-03 14:45:00,79.0,64.8,29.78,SW,225,0.0,7.0,62,0.00,,,0.00,Weather View 32 v70,2013-08-03 18:45:00,
2013-08-03 14:50:00,79.0,66.2,29.78,SW,225,2.0,7.0,65,0.00,,,0.00,Weather View 32 v70,2013-08-03 18:50:00,
2013-08-03 14:55:00,79.0,67.1,29.78,South,180,0.0,7.0,67,0.00,,,0.00,Weather View 32 v70,2013-08-03 18:55:00,
2013-08-03 15:00:00,79.0,66.6,29.77,SSW,202,1.0,7.0,66,0.00,,,0.00,Weather View 32 v70,2013-08-03 19:00:00,
2013-08-03 15:05:00,79.0,66.6,29.77,SW,225,1.0,7.0,66,0.00,,,0.00,Weather View 32 v70,2013-08-03 19:05:00,
2013-08-03 15:10:00,80.0,67.6,29.77,North,360,1.0,6.0,66,0.00,,,0.00,Weather View 32 v70,2013-08-03 19:10:00,
2013-08-03 15:15:00,81.0,64.3,29.77,NW,315,3.0,6.0,57,0.00,,,0.00,Weather View 32 v70,2013-08-03 19:15:00,
2013-08-03 15:20:00,81.0,65.8,29.76,SW,225,1.0,7.0,60,0.00,,,0.00,Weather View 32 v70,2013-08-03 19:20:00,
2013-08-03 15:25:00,81.0,66.2,29.76,SW,225,0.0,7.0,61,0.00,,,0.00,Weather View 32 v70,2013-08-03 19:25:00,
2013-08-03 15:30:00,82.0,66.2,29.75,SW,225,3.0,7.0,59,0.00,,,0.00,Weather View 32 v70,2013-08-03 19:30:00,
2013-08-03 15:35:00,82.0,66.2,29.75,South,180,0.0,7.0,59,0.00,,,0.00,Weather View 32 v70,2013-08-03 19:35:00,
2013-08-03 15:40:00,82.0,65.2,29.75,WNW,292,0.0,7.0,57,0.00,,,0.00,Weather View 32 v70,2013-08-03 19:40:00,
2013-08-03 15:45:00,82.0,66.2,29.75,SSW,202,3.0,7.0,59,0.00,,,0.00,Weather View 32 v70,2013-08-03 19:45:00,
2013-08-03 15:50:00,82.0,64.7,29.75,SSW,202,2.0,7.0,56,0.00,,,0.00,Weather View 32 v70,2013-08-03 19:50:00,
2013-08-03 15:55:00,81.0,65.3,29.75,SSW,202,0.0,7.0,59,0.00,,,0.00,Weather View 32 v70,2013-08-03 19:55:00,
2013-08-03 16:00:00,80.0,65.8,29.75,SSW,202,0.0,7.0,62,0.00,,,0.00,Weather View 32 v70,2013-08-03 20:00:00,
2013-08-03 16:05:00,80.0,66.7,29.75,SSE,157,0.0,7.0,64,0.00,,,0.00,Weather View 32 v70,2013-08-03 20:05:00,
2013-08-03 16:10:00,79.0,64.3,29.76,SSE,157,1.0,7.0,61,0.00,,,0.00,Weather View 32 v70,2013-08-03 20:10:00,
2013-08-03 16:15:00,78.0,65.2,29.76,SSE,157,0.0,7.0,65,0.00,,,0.00,Weather View 32 v70,2013-08-03 20:15:00,
2013-08-03 16:20:00,78.0,67.4,29.77,SSE,157,2.0,7.0,70,0.00,,,0.00,Weather View 32 v70,2013-08-03 20:20:00,
2013-08-03 16:25:00,78.0,67.4,29.77,SSE,157,0.0,7.0,70,0.00,,,0.00,Weather View 32 v70,2013-08-03 20:25:00,
2013-08-03 16:30:00,78.0,67.0,29.76,SW,225,4.0,7.0,69,0.00,,,0.00,Weather View 32 v70,2013-08-03 20:30:00,
2013-08-03 16:35:00,77.0,66.4,29.76,SW,225,1.0,7.0,70,0.00,,,0.00,Weather View 32 v70,2013-08-03 20:35:00,
2013-08-03 16:40:00,77.0,66.8,29.77,SW,225,2.0,7.0,71,0.00,,,0.00,Weather View 32 v70,2013-08-03 20:40:00,
2013-08-03 16:45:00,76.0,66.7,29.77,SW,225,3.0,5.0,73,0.00,,,0.00,Weather View 32 v70,2013-08-03 20:45:00,
2013-08-03 16:50:00,76.0,67.5,29.78,SW,225,2.0,5.0,75,0.00,,,0.00,Weather View 32 v70,2013-08-03 20:50:00,
2013-08-03 16:55:00,75.0,66.9,29.78,SW,225,2.0,5.0,76,0.00,,,0.00,Weather View 32 v70,2013-08-03 20:55:00,
2013-08-03 17:00:00,75.0,67.6,29.77,SW,225,1.0,6.0,78,0.00,,,0.00,Weather View 32 v70,2013-08-03 21:00:00,
2013-08-03 17:06:00,75.0,67.3,29.77,SW,225,1.0,6.0,77,0.00,,,0.00,Weather View 32 v70,2013-08-03 21:06:00,
2013-08-03 17:11:00,75.0,67.6,29.77,SW,225,3.0,6.0,78,0.00,,,0.00,Weather View 32 v70,2013-08-03 21:11:00,
2013-08-03 17:16:00,75.0,67.6,29.77,SW,225,0.0,6.0,78,0.00,,,0.00,Weather View 32 v70,2013-08-03 21:16:00,
2013-08-03 17:20:00,75.0,68.4,29.77,SW,225,1.0,6.0,80,0.00,,,0.00,Weather View 32 v70,2013-08-03 21:20:00,
2013-08-03 17:26:00,75.0,66.9,29.77,SW,225,1.0,6.0,76,0.00,,,0.00,Weather View 32 v70,2013-08-03 21:26:00,
2013-08-03 17:31:00,75.0,67.6,29.77,SW,225,1.0,6.0,78,0.00,,,0.00,Weather View 32 v70,2013-08-03 21:31:00,
2013-08-03 17:36:00,75.0,67.6,29.77,SW,225,0.0,6.0,78,0.00,,,0.00,Weather View 32 v70,2013-08-03 21:36:00,
2013-08-03 17:41:00,75.0,68.0,29.78,SW,225,2.0,6.0,79,0.00,,,0.00,Weather View 32 v70,2013-08-03 21:41:00,
2013-08-03 17:46:00,75.0,68.0,29.78,SW,225,0.0,6.0,79,0.00,,,0.00,Weather View 32 v70,2013-08-03 21:46:00,
2013-08-03 17:51:00,75.0,67.6,29.77,SW,225,2.0,6.0,78,0.00,,,0.00,Weather View 32 v70,2013-08-03 21:51:00,
2013-08-03 17:56:00,75.0,66.5,29.77,SSW,202,3.0,7.0,75,0.00,,,0.00,Weather View 32 v70,2013-08-03 21:56:00,
2013-08-03 18:01:00,75.0,68.4,29.78,SSW,202,1.0,7.0,80,0.00,,,0.00,Weather View 32 v70,2013-08-03 22:01:00,
2013-08-03 18:06:00,75.0,67.6,29.78,SSW,202,2.0,7.0,78,0.00,,,0.00,Weather View 32 v70,2013-08-03 22:06:00,
2013-08-03 18:11:00,76.0,67.1,29.77,SSW,202,2.0,7.0,74,0.00,,,0.00,Weather View 32 v70,2013-08-03 22:11:00,
2013-08-03 18:16:00,77.0,67.2,29.77,SSW,202,2.0,7.0,72,0.00,,,0.00,Weather View 32 v70,2013-08-03 22:16:00,
2013-08-03 18:21:00,77.0,66.8,29.77,SSW,202,2.0,7.0,71,0.00,,,0.00,Weather View 32 v70,2013-08-03 22:21:00,
2013-08-03 18:26:00,76.0,66.3,29.77,SSW,202,2.0,7.0,72,0.00,,,0.00,Weather View 32 v70,2013-08-03 22:26:00,
2013-08-03 18:31:00,76.0,67.1,29.77,West,270,0.0,7.0,74,0.00,,,0.00,Weather View 32 v70,2013-08-03 22:31:00,
2013-08-03 18:36:00,75.0,66.5,29.77,West,270,0.0,7.0,75,0.00,,,0.00,Weather View 32 v70,2013-08-03 22:36:00,
2013-08-03 18:41:00,74.0,65.5,29.78,West,270,0.0,7.0,75,0.00,,,0.00,Weather View 32 v70,2013-08-03 22:41:00,
2013-08-03 18:46:00,74.0,65.9,29.78,WSW,247,1.0,7.0,76,0.00,,,0.00,Weather View 32 v70,2013-08-03 22:46:00,
2013-08-03 18:51:00,74.0,66.7,29.78,WSW,247,0.0,7.0,78,0.00,,,0.00,Weather View 32 v70,2013-08-03 22:51:00,
2013-08-03 18:56:00,73.0,65.7,29.78,WSW,247,0.0,5.0,78,0.00,,,0.00,Weather View 32 v70,2013-08-03 22:56:00,
2013-08-03 19:01:00,73.0,66.1,29.79,WSW,247,0.0,5.0,79,0.00,,,0.00,Weather View 32 v70,2013-08-03 23:01:00,
2013-08-03 19:07:00,73.0,66.4,29.79,WSW,247,0.0,5.0,80,0.00,,,0.00,Weather View 32 v70,2013-08-03 23:07:00,
2013-08-03 19:12:00,73.0,67.2,29.80,WSW,247,0.0,4.0,82,0.00,,,0.00,Weather View 32 v70,2013-08-03 23:12:00,
2013-08-03 19:17:00,72.0,66.9,29.80,WSW,247,0.0,4.0,84,0.00,,,0.00,Weather View 32 v70,2013-08-03 23:17:00,
2013-08-03 19:22:00,72.0,67.2,29.80,WSW,247,0.0,4.0,85,0.00,,,0.00,Weather View 32 v70,2013-08-03 23:22:00,
2013-08-03 19:27:00,72.0,67.9,29.80,WSW,247,0.0,4.0,87,0.00,,,0.00,Weather View 32 v70,2013-08-03 23:27:00,
2013-08-03 19:32:00,71.0,66.9,29.81,WSW,247,0.0,3.0,87,0.00,,,0.00,Weather View 32 v70,2013-08-03 23:32:00,
2013-08-03 19:37:00,71.0,67.9,29.81,NNE,22,1.0,4.0,90,0.00,,,0.00,Weather View 32 v70,2013-08-03 23:37:00,
2013-08-03 19:42:00,71.0,67.9,29.81,NNE,22,2.0,6.0,90,0.00,,,0.00,Weather View 32 v70,2013-08-03 23:42:00,
2013-08-03 19:47:00,71.0,67.3,29.83,NE,45,5.0,7.0,88,0.00,,,0.00,Weather View 32 v70,2013-08-03 23:47:00,
2013-08-03 19:52:00,71.0,67.3,29.83,SE,135,2.0,9.0,88,0.00,,,0.00,Weather View 32 v70,2013-08-03 23:52:00,
2013-08-03 19:57:00,70.0,66.3,29.82,SSW,202,0.0,9.0,88,0.00,,,0.00,Weather View 32 v70,2013-08-03 23:57:00,
2013-08-03 20:02:00,70.0,66.6,29.82,South,180,1.0,9.0,89,0.00,,,0.00,Weather View 32 v70,2013-08-04 00:02:00,
2013-08-03 20:07:00,69.0,65.9,29.83,SE,135,1.0,9.0,90,0.00,,,0.00,Weather View 32 v70,2013-08-04 00:07:00,
2013-08-03 20:12:00,69.0,66.3,29.83,SE,135,0.0,9.0,91,0.00,,,0.00,Weather View 32 v70,2013-08-04 00:12:00,
2013-08-03 20:17:00,69.0,66.9,29.83,SE,135,0.0,9.0,93,0.00,,,0.00,Weather View 32 v70,2013-08-04 00:17:00,
2013-08-03 20:22:00,68.0,66.5,29.83,NE,45,0.0,9.0,95,0.00,,,0.00,Weather View 32 v70,2013-08-04 00:22:00,
2013-08-03 20:27:00,68.0,66.5,29.84,NE,45,0.0,9.0,95,0.00,,,0.00,Weather View 32 v70,2013-08-04 00:27:00,
2013-08-03 20:32:00,68.0,66.5,29.84,NE,45,0.0,9.0,95,0.01,,,0.01,Weather View 32 v70,2013-08-04 00:32:00,
2013-08-03 20:37:00,68.0,66.2,29.85,NE,45,0.0,9.0,94,0.01,,,0.01,Weather View 32 v70,2013-08-04 00:37:00,
2013-08-03 20:42:00,67.0,65.5,29.85,NE,45,0.0,9.0,95,0.01,,,0.01,Weather View 32 v70,2013-08-04 00:42:00,
2013-08-03 20:47:00,67.0,65.5,29.85,NE,45,0.0,9.0,95,0.01,,,0.01,Weather View 32 v70,2013-08-04 00:47:00,
2013-08-03 20:52:00,67.0,65.8,29.85,NE,45,0.0,4.0,96,0.01,,,0.01,Weather View 32 v70,2013-08-04 00:52:00,
2013-08-03 20:57:00,67.0,65.5,29.85,NE,45,0.0,4.0,95,0.01,,,0.01,Weather View 32 v70,2013-08-04 00:57:00,
2013-08-03 21:02:00,66.0,65.1,29.85,NE,45,0.0,3.0,97,0.01,,,0.01,Weather View 32 v70,2013-08-04 01:02:00,
2013-08-03 21:08:00,67.0,65.8,29.85,NE,45,0.0,3.0,96,0.01,,,0.01,Weather View 32 v70,2013-08-04 01:08:00,
2013-08-03 21:13:00,66.0,65.4,29.85,NE,45,0.0,3.0,98,0.01,,,0.01,Weather View 32 v70,2013-08-04 01:13:00,
2013-08-03 21:18:00,66.0,64.8,29.87,NE,45,0.0,3.0,96,0.01,,,0.01,Weather View 32 v70,2013-08-04 01:18:00,
2013-08-03 21:23:00,66.0,64.8,29.87,NE,45,0.0,3.0,96,0.01,,,0.01,Weather View 32 v70,2013-08-04 01:23:00,
2013-08-03 21:27:00,66.0,65.1,29.87,West,270,2.0,3.0,97,0.01,,,0.01,Weather View 32 v70,2013-08-04 01:27:00,
2013-08-03 21:33:00,66.0,66.0,29.87,West,270,0.0,3.0,100,0.00,,,0.01,Weather View 32 v70,2013-08-04 01:33:00,
2013-08-03 21:38:00,66.0,66.0,29.87,West,270,0.0,3.0,100,0.00,,,0.01,Weather View 32 v70,2013-08-04 01:38:00,
2013-08-03 21:43:00,66.0,66.0,29.87,West,270,0.0,3.0,100,0.00,,,0.01,Weather View 32 v70,2013-08-04 01:43:00,
2013-08-03 21:48:00,66.0,66.0,29.87,NW,315,0.0,2.0,100,0.00,,,0.01,Weather View 32 v70,2013-08-04 01:48:00,
2013-08-03 21:53:00,66.0,66.0,29.87,NE,45,0.0,2.0,100,0.00,,,0.01,Weather View 32 v70,2013-08-04 01:53:00,
2013-08-03 21:57:00,66.0,66.0,29.87,NE,45,1.0,3.0,100,0.00,,,0.01,Weather View 32 v70,2013-08-04 01:57:00,
2013-08-03 22:03:00,65.0,65.0,29.87,NE,45,0.0,3.0,100,0.00,,,0.01,Weather View 32 v70,2013-08-04 02:03:00,
2013-08-03 22:08:00,65.0,65.0,29.88,NE,45,0.0,3.0,100,0.00,,,0.01,Weather View 32 v70,2013-08-04 02:08:00,
2013-08-03 22:13:00,65.0,65.0,29.88,NE,45,0.0,3.0,100,0.00,,,0.01,Weather View 32 v70,2013-08-04 02:13:00,
2013-08-03 22:18:00,65.0,65.0,29.88,NE,45,0.0,3.0,100,0.00,,,0.01,Weather View 32 v70,2013-08-04 02:18:00,
2013-08-03 22:23:00,65.0,65.0,29.88,NE,45,0.0,3.0,100,0.00,,,0.01,Weather View 32 v70,2013-08-04 02:23:00,
2013-08-03 22:28:00,64.0,64.0,29.88,NE,45,0.0,3.0,100,0.00,,,0.01,Weather View 32 v70,2013-08-04 02:28:00,
2013-08-03 22:33:00,64.0,64.0,29.88,NE,45,0.0,3.0,100,0.00,,,0.01,Weather View 32 v70,2013-08-04 02:33:00,
2013-08-03 22:38:00,64.0,64.0,29.89,NE,45,0.0,3.0,100,0.00,,,0.01,Weather View 32 v70,2013-08-04 02:38:00,
2013-08-03 22:43:00,64.0,64.0,29.89,NE,45,1.0,3.0,100,0.00,,,0.01,Weather View 32 v70,2013-08-04 02:43:00,
2013-08-03 22:48:00,64.0,64.0,29.89,NE,45,0.0,3.0,100,0.00,,,0.01,Weather View 32 v70,2013-08-04 02:48:00,
2013-08-03 22:53:00,64.0,64.0,29.89,NE,45,0.0,3.0,100,0.00,,,0.01,Weather View 32 v70,2013-08-04 02:53:00,
2013-08-03 22:58:00,64.0,64.0,29.89,NE,45,0.0,3.0,100,0.00,,,0.01,Weather View 32 v70,2013-08-04 02:58:00,
2013-08-03 23:03:00,64.0,64.0,29.89,NE,45,0.0,2.0,100,0.00,,,0.01,Weather View 32 v70,2013-08-04 03:03:00,
2013-08-03 23:08:00,64.0,64.0,29.88,NE,45,0.0,2.0,100,0.00,,,0.01,Weather View 32 v70,2013-08-04 03:08:00,
2013-08-03 23:13:00,63.0,63.0,29.88,NE,45,0.0,2.0,100,0.00,,,0.01,Weather View 32 v70,2013-08-04 03:13:00,
2013-08-03 23:18:00,63.0,63.0,29.89,NE,45,1.0,2.0,100,0.00,,,0.01,Weather View 32 v70,2013-08-04 03:18:00,
2013-08-03 23:23:00,63.0,63.0,29.89,NE,45,2.0,2.0,100,0.00,,,0.01,Weather View 32 v70,2013-08-04 03:23:00,
2013-08-03 23:28:00,63.0,63.0,29.89,NE,45,0.0,2.0,100,0.00,,,0.01,Weather View 32 v70,2013-08-04 03:28:00,
2013-08-03 23:33:00,63.0,63.0,29.89,NE,45,0.0,2.0,100,0.00,,,0.01,Weather View 32 v70,2013-08-04 03:33:00,
2013-08-03 23:38:00,63.0,63.0,29.89,NE,45,0.0,2.0,100,0.00,,,0.01,Weather View 32 v70,2013-08-04 03:38:00,
2013-08-03 23:43:00,63.0,63.0,29.89,NE,45,2.0,2.0,100,0.00,,,0.01,Weather View 32 v70,2013-08-04 03:43:00,
2013-08-03 23:48:00,63.0,63.0,29.89,NE,45,2.0,2.0,100,0.00,,,0.01,Weather View 32 v70,2013-08-04 03:48:00,
2013-08-03 23:53:00,63.0,63.0,29.89,NE,45,0.0,2.0,100,0.00,,,0.01,Weather View 32 v70,2013-08-04 03:53:00,
2013-08-03 23:58:00,63.0,63.0,29.89,NE,45,0.0,3.0,100,0.00,,,0.01,Weather View 32 v70,2013-08-04 03:58:00,